Regional Weather Roundup
Issued by NWS

Home | Current Version | Previous Version | Text Only | Print | Product List | Glossary On
Versions: 1 2 3 4 5 6 7 8 9 10 11 12 13 14 15 16 17 18 19 20 21 22 23 24 25 26 27 28 29 30 31 32 33 34 35 36 37 38 39 40 41 42 43 44 45 46 47 48 49 50
000
ASUS43 KTOP 231708
RWRKS

WEATHER ROUNDUP FOR KANSAS
NATIONAL WEATHER SERVICE GOODLAND KS
1100 AM CST THU FEB 23 2017

NOTE:  "FAIR" INDICATES FEW OR NO CLOUDS BELOW 12,000 FEET WITH NO
SIGNIFICANT WEATHER AND/OR OBSTRUCTIONS TO VISIBILITY.

KSZ001>006-013>018-027>032-041>047-231800-
NORTHWEST KANSAS

CITY           SKY/WX    TMP DP  RH WIND       PRES   REMARKS
GOODLAND       CLOUDY    33  33 100 E21       29.53F WCI  21
HAYS           SUNNY     51  37  58 NE17G25   29.54F
HILL CITY      CLOUDY    43  35  73 E18G26    29.58F
RUSSELL        SUNNY     51  37  58 E22       29.52F
$$

KSZ061>065-074>080-084>089-231800-
SOUTHWEST KANSAS

CITY           SKY/WX    TMP DP  RH WIND       PRES   REMARKS
DODGE CITY     SUNNY     58  39  49 SE10      29.49F
ELKHART          N/A     64  31  29 MISG        N/A
GARDEN CITY    SUNNY     59  36  42 SE16G22   29.46F
GREAT BEND     MOSUNNY   56  40  55 E10       29.51F
LIBERAL        SUNNY     64  36  34 S17       29.48F
PRATT          CLOUDY    54  39  56 SE12      29.49F
$$

KSZ066>073-081>083-090>101-231800-
SOUTHEAST KANSAS

CITY           SKY/WX    TMP DP  RH WIND       PRES   REMARKS
CHANUTE        CLOUDY    67  52  58 S9        29.54F
COFFEYVILLE    PTSUNNY   70  52  52 S17G24    29.51F
HUTCHINSON     MOSUNNY   60  42  51 E14       29.50F
MEDICINE LODGE   N/A     55  42  61 E5        29.48F
NEWTON         CLOUDY    56  45  66 E15G24    29.50F
PARSONS        MOSUNNY   68  52  56 S14       29.53F
WICHITA INTL   CLOUDY    63  47  55 E14       29.48F
WICHITA JABRA  PTSUNNY   61  49  64 E13       29.49F
WICHITA MCCONL MOSUNNY   63  47  57 SE14      29.48F
WINFIELD       MOSUNNY   63  48  58 SE7       29.50F
$$

KSZ007>012-019>026-033>040-048>060-102>105-231800-
NORTHEAST KANSAS

CITY           SKY/WX    TMP DP  RH WIND       PRES   REMARKS
CONCORDIA      PTSUNNY   46  37  71 NE20G29   29.58F
EMPORIA        CLOUDY    56  45  66 E20       29.53F
LAWRENCE       CLOUDY    52  41  66 NE12      29.63F
MANHATTAN      SUNNY     57  40  52 E22G29    29.53F
MARYSVILLE     CLOUDY    45  36  70 E16G24    29.62F
OLATHE IND     PTSUNNY   52  42  69 NE14      29.62F
OLATHE EXE     PTSUNNY   51  43  74 E14       29.62F
SALINA         SUNNY     60  41  49 E15G25    29.53F
TOPEKA BILLARD CLOUDY    53  40  61 E20       29.58F
TOPEKA FORBES  PTSUNNY   53  39  59 E21G28    29.56F
$$




USA.gov is the U.S. government's official web portal to all federal, state and local government web resources and services.